Flag for India Weather past 2 weeks in Allahabad, Uttar Pradesh, India

Now
91 °F

Scattered clouds.


Feels Like: 108 °F
Forecast: 82 / 98 °F
Wind: 6 mph from Southeast

Location: Varanasi / Babatpur

Current Time: Aug 27, 2014 at 2:59:08 PM

Latest Report: Aug 27, 2014 at 2:00 PM


Visibility: 4 mi

Pressure: 29.59 "Hg

Humidity: 67%

Dew point: 79 °F

Location of AllahabadLocation

Historic Weather in Allahabad — Graph

°F

Allahabad temperature yesterday

Maximum temperature yesterday: 99 °F (at 2:00 PM)
Minimum temperature yesterday: 84 °F (at 5:00 AM)
Average temperature yesterday: 92 °F

Past Weeks' High & Low Weather Summary

 TemperatureHumidityPressure
High99 °F (Aug 26, 2:00 PM)94% (Aug 12, 7:00 PM)29.77 "Hg (Aug 12, 7:00 PM)
Low79 °F (Aug 20, 10:00 PM)53% (Aug 25, 4:00 PM)29.47 "Hg (Aug 12, 7:00 PM)
Average88 °F76%29.63 "Hg
* Reported Aug 12 7:00 PM — Aug 27 2:00 PM, Allahabad, Weather by CustomWeather, © 2014

Note: Actual official high and low records may vary slightly from our data, if they occured in-between our weather recording intervals... More about our weather records

Advertising

Allahabad weather history for previous 24 hours

 ConditionsComfort  
Time TempWeatherWind HumidityBarometerVisibility
2:00 PM
Aug 27
91 °FScattered clouds.6 mph67%29.59 "Hg4 mi
12:00 PM90 °FScattered clouds.5 mph75%29.62 "Hg3 mi
11:00 AM91 °FScattered clouds.5 mph67%29.65 "Hg2 mi
10:00 AM88 °FScattered clouds.7 mph75%29.65 "Hg2 mi
9:00 AM88 °FScattered clouds.7 mph75%29.65 "Hg2 mi
8:00 AM86 °FScattered clouds.6 mph84%29.65 "Hg2 mi
4:00 AM82 °FPassing clouds.2 mph84%29.56 "Hg2 mi
12:00 AM88 °FHaze.1 mph84%29.59 "Hg2 mi
11:00 PM
Aug 26
90 °FHaze.3 mph79%29.59 "Hg2 mi
10:00 PM91 °FHaze.No wind75%29.59 "Hg2 mi
9:00 PM91 °FHaze.No wind75%29.59 "Hg3 mi
8:00 PM93 °FHaze.No wind71%29.56 "Hg3 mi
7:00 PM93 °FHaze.No wind71%29.53 "Hg3 mi
5:00 PM99 °FClear.3 mph53%29.53 "Hg4 mi
4:00 PM99 °FClear.6 mph53%29.56 "Hg4 mi
3:00 PM99 °FClear.7 mph53%29.56 "Hg4 mi
2:00 PM99 °FClear.6 mph53%29.62 "Hg4 mi
Weather by CustomWeather, © 2014

See weather overviewHow to use our weather pages